Location: La Chapelle
(48.3135°N, 1.3085°W)
Time: 02:21:45
(UTC+00:00)

Cosmos 1000 Rocket - Pass Details

Date: 03 March 2021
Orbit: 954 x 991 km, 82.9° (Epoch: 12 April)

Event Time Altitude Azimuth Distance (km) Brightness Sun altitude
Rises 20:39:53 0° 351° (N) 3,689 8.0 -28.0°
Reaches altitude 10° 20:42:24 10° 352° (N) 2,742 7.2 -28.4°
Enters shadow 20:48:33 82° 52° (NE) 1,002 4.4 -29.3°
